Hourly Data Report for April 15, 2021

TORONTO CITY
ONTARIO
Current Station Operator: ECCC - MSC

43°40'00.000" N
79°24'00.000" W
112.50 m
6158355
71508
XTO

Download Data

Hourly Data (April 2021)
Hourly Data Report for April 15, 2021
TIME
LST
Temp Definition
°C
Dew Point Definition
°C
Rel Hum Definition
%
Precip. Amount Definition
mm

Wind Dir Definition
10's deg

Wind Spd Definition
km/h
Visibility Definition
km
Stn Press Definition
kPa
Hmdx Definition


Wind Chill Definition


Weather Definition


00:00 7.3 1.8 68 0.2       99.79     LegendNANA
01:00 6.6 2.1 73 0.2       99.75     LegendNANA
02:00 6.3 1.4 71 0.0       99.69     LegendNANA
03:00 6.2 1.6 73 0.0       99.64     LegendNANA
04:00 5.8 1.1 72 0.0       99.61     LegendNANA
05:00 5.5 1.1 74 0.0       99.60     LegendNANA
06:00 5.4 1.6 76 0.0       99.60     LegendNANA
07:00 5.6 1.8 77 0.0       99.60     LegendNANA
08:00 6.0 0.4 67 0.0       99.58     LegendNANA
09:00 7.0 0.3 62 0.0       99.56     LegendNANA
10:00 7.0 -0.6 59 0.0       99.54     LegendNANA
11:00 8.0 -2.3 48 0.0       99.49     LegendNANA
12:00 7.0 0.2 62 0.0       99.45     LegendNANA
13:00 6.9 -0.6 59 0.0       99.43     LegendNANA
14:00 6.9 0.6 64 0.0       99.41     LegendNANA
15:00 7.0 0.6 64 0.0       99.41     LegendNANA
16:00 7.6 -0.3 57 0.0       99.40     LegendNANA
17:00 7.6 0.4 60 0.0       99.40     LegendNANA
18:00 6.8 1.6 69 0.0       99.43     LegendNANA
19:00 6.4 2.0 73 0.0       99.44     LegendNANA
20:00 6.3 0.5 67 0.0       99.46     LegendNANA
21:00 5.4 1.9 78 0.1       99.43     LegendNANA
22:00 5.3 2.9 85 0.6       99.34     LegendNANA
23:00 5.9 3.1 82 0.1       99.31     LegendNANA

Notes on Data Quality.

Legend

  • E = Estimated
  • M = Missing
  • NA = Not Available*
  • [empty] = Indicates an unobserved value
Date modified: